Regional Weather Roundup
Issued by NWS

Home | Current Version | Previous Version | Graphics & Text | Print | Product List | Glossary On
Versions: 1 2 3 4 5 6 7 8 9 10 11 12 13 14 15 16 17 18 19 20 21 22 23 24 25 26 27 28 29 30 31 32 33 34 35 36 37 38 39 40 41 42 43 44 45 46 47 48 49 50
000
ASUS43 KMPX 300901
RWRMN
WEATHER ROUNDUP FOR MINNESOTA
NATIONAL WEATHER SERVICE TWIN CITIES/CHANHASSEN MN
400 AM CDT TUE JUN 30 2015


NOTE: "FAIR" INDICATES FEW OR NO CLOUDS BELOW 12,000 FEET WITH NO
SIGNIFICANT WEATHER AND/OR OBSTRUCTIONS TO VISIBILITY. N/A MEANS
CURRENT SKY AND/OR WEATHER CONDITIONS ARE NOT AVAILABLE.

MNZ060>063-068>070-301000-
   Twin Cities Metro

CITY           SKY/WX    TMP DP  RH WIND       PRES   REMARKS
TWIN CITIES    CLEAR     64  62  93 N7        29.85S
ST PAUL        PTCLDY    63  62  97 NW5       29.85S
CRYSTAL        CLEAR     64  60  87 N6        29.85R
BLAINE         CLEAR     63  63 100 N7        29.86S
LAKEVILLE      CLEAR     61  59  94 NW2       29.85S
EDEN PRAIRIE   CLEAR     64  61  90 N7        29.85R FOG
SOUTH ST PAUL  CLEAR     64  62  94 CALM      29.85S FOG
LAKE ELMO      FAIR      61  61 100 CALM      29.86S FOG
$$
MNZ001>005-007-008-013>017-022>024-027-028-301000-
   Northwest Minnesota

CITY           SKY/WX    TMP DP  RH WIND       PRES   REMARKS
BEMIDJI        CLEAR     50  49  95 CALM      29.94S
HALLOCK        FOG       55  54  94 CALM      29.94F VSB 1/4
ROSEAU         CLEAR     54  48  82 CALM      29.97S
WARROAD        CLEAR     61  55  82 SE6       29.97R
THIEF RVR FALL CLEAR     59  57  94 NE6       29.95S
CROOKSTON      PTCLDY    55  55 100 N5        29.94F
FOSSTON        CLEAR     54  52  94 CALM      29.95S FOG
DETROIT LAKES  PTCLDY    61  59  94 CALM      29.94F
MOORHEAD       PTCLDY    57  55  94 CALM      29.93S FOG
PARK RAPIDS    CLEAR     56  54  93 NW3       29.93S
MAHNOMEN       FAIR      56  56  98 N3        29.94S FOG
$$
MNZ006-009>011-018-025>026-301000-
   North Central Minnesota

CITY           SKY/WX    TMP DP  RH WIND       PRES   REMARKS
BAUDETTE       CLEAR     54  51  90 E3        29.96R
FLAG ISLAND    CLEAR     61  54  77 E3        29.95S
INTL FALLS     CLEAR     55  50  83 E3        29.95R
WASKISH        CLEAR     55  54  94 NE5         N/A
BIG FORK       CLEAR     54  52  94 CALM      29.95R
LONGVILLE      CLEAR     57  55  94 CALM      29.92S
GRAND RAPIDS   CLEAR     57  54  88 N7        29.93R
CRANE LAKE     CLOUDY    55  52  88 N5        29.95S
COOK           CLEAR     54  52  94 CALM      29.94R
WALKER         FAIR      53  52  99 CALM      29.93S FOG
$$
MNZ012-019>021-037-301000-
   Northeast Minnesota

CITY           SKY/WX    TMP DP  RH WIND       PRES   REMARKS
DULUTH         MOCLDY    60  56  86 N7        29.89S
ELY            CLOUDY    57  52  82 NE7G18    29.92S
HIBBING        CLEAR     54  52  93 N7        29.92R
EVELETH        CLEAR     54  52  94 CALM      29.93R
DULUTH HARBOR  CLOUDY    63  61  94 NE10      29.88S
GRAND MARAIS     N/A     56  50  80 CALM      29.89R
G MARAIS ARPRT CLOUDY    48  45  87 N13G20    29.92S
$$
MNZ029>031-032-039>041-046>048-054>057-064-301000-
   West Central Minnesota

CITY           SKY/WX    TMP DP  RH WIND       PRES   REMARKS
FERGUS FALLS   PTCLDY    63  61  94 E3        29.91F
WHEATON        CLEAR     59  57  94 CALM      29.93R
MORRIS         PTCLDY    63  61  94 N5        29.90R FOG
ALEXANDRIA     CLEAR     63  57  81 NE7       29.93F
ELBOW LAKE     FAIR      64  61  90 NE7       29.91S
WADENA         CLEAR     55  55 100 CALM      29.93S FOG
GLENWOOD       CLEAR     63  57  82 NE7       29.92S
APPLETON       PTCLDY    64  61  88 N5        29.89S
BENSON         PTCLDY    63  59  88 CALM      29.89F FOG
ORTONVILLE     PTCLDY    63  61  94 NW5       29.91S
MADISON        PTCLDY    61  59  94 NW3       29.91R
WILLMAR        FAIR      64  63  94 NE6       29.91S
$$
MNZ033>034-036-042>043-049>051-058-059-301000-
   Central Minnesota

CITY           SKY/WX    TMP DP  RH WIND       PRES   REMARKS
ST CLOUD       CLEAR     60  58  92 N3        29.88F FOG
SAUK CENTRE    FAIR      61  59  93 N3        29.91F
PAYNESVILLE    PTCLDY    59  58  95 NW5       29.90S
AITKIN         HAZE      52  45  76 CALM      29.89F VSB 3/4
PINE RIVER     CLEAR     54  54 100 CALM      29.95F
BRAINERD       CLEAR     57  55  93 CALM      29.91F
STAPLES        CLEAR     55  55 100 CALM      29.92S
LONG PRAIRIE   CLOUDY    59  55  88 N3        29.92F
LITTLE FALLS   CLEAR     57  54  88 CALM      29.90F
LITCHFIELD     CLEAR     64  63  94 N3        29.90R
BUFFALO        CLEAR     63  59  86 N6        29.89R
MAPLE LAKE     CLEAR     63  61  93 N5        29.89S
$$
MNZ037-044-045-052-053-301000-
   East Central Minnesota

CITY           SKY/WX    TMP DP  RH WIND       PRES   REMARKS
PRINCETON      MOCLDY    63  59  88 N5        29.88S
MORA           CLEAR     55  54  94 CALM      29.90S
CAMBRIDGE      CLEAR     63  55  77 CALM      29.86S
MOOSE LAKE     CLEAR     55  55 100 N3        29.87S
HINCKLEY       FAIR      59  57  94 N6        29.88S
CLOQUET        CLEAR     57  54  88 N3        29.89S
MCGREGOR       CLEAR     59  55  88 CALM      29.91S
$$
MNZ071>073-080-081-089-090-097-098-301000-
   Southwest Minnesota

CITY           SKY/WX    TMP DP  RH WIND       PRES   REMARKS
MONTEVIDEO     PTCLDY    63  61  94 NE3       29.90S
GRANITE FALLS  CLOUDY    64  62  94 NW5       29.90F
CANBY          CLOUDY    62  60  93 NW5       29.92S
MARSHALL       MOCLDY    63  57  82 NW7       29.90S
REDWOOD FALLS  CLEAR     64  62  93 NW6       29.88S FOG
OLIVIA         CLEAR     59  57  94 N6        29.88S FOG
PIPESTONE      PTCLDY    64  61  88 N3        29.93S
WINDOM         PTCLDY    64  63  94 NW6       29.90S
WORTHINGTON    CLOUDY    63  57  82 NW7       29.91S
JACKSON        PTCLDY    63  61  94 NW6       29.90S
TRACY          CLOUDY    64  63  94 NW6       29.91R
SLAYTON        MOCLDY    62  61  98 CALM      29.92F
$$
MNZ065>067-074>077-082>085-091>093-301000-
   South Central Minnesota

CITY           SKY/WX    TMP DP  RH WIND       PRES   REMARKS
MANKATO        CLEAR     64  61  88 N7        29.86R
NEW ULM        CLEAR     63  63 100 NW5       29.87S
ST JAMES       CLEAR     64  64 100 W6        29.88S
FAIRMONT       CLEAR     64  59  82 NW7       29.87S
GLENCOE        CLEAR     64  62  93 N3        29.87R
FARIBAULT      CLEAR     57  57 100 CALM      29.86R FOG
OWATONNA       CLEAR     59  57  94 CALM      29.86R FOG
WASECA         CLEAR     59  57  94 N5        29.87R FOG
ALBERT LEA     CLEAR     64  63  94 W3        29.85S FOG
$$
MNZ078>079-086>088-094>096-301000-
   Southeast Minnesota

CITY           SKY/WX    TMP DP  RH WIND       PRES   REMARKS
ROCHESTER      CLEAR     58  56  93 W5        29.86R
RED WING       FOG       61  57  88 CALM      29.83S VSB<1/4
STANTON        MOCLDY    59  57  94 CALM      29.84S VSB 1/2
DODGE CENTER   CLEAR     57  57 100 CALM      29.86R
WINONA         CLOUDY    59  59 100 CALM      29.84R FOG
AUSTIN         CLEAR     57  55  94 CALM      29.85R FOG
PRESTON        CLEAR     56  55  95 NW5       29.86R FOG
$$
ABBREVIATIONS USED IN REMARKS
   TC - TEMPERATURES IN CELSIUS
  WCI - WIND CHILL INDEX
   HX - HEAT INDEX
  VSB - VISIBILITY
$$


USA.gov is the U.S. government's official web portal to all federal, state and local government web resources and services.